User: anonymous   Login
Location: Unspecified
(0.0000°N, 0.0000°E)
Time: 04:41:38
(UTC+00:00)
Language:

Kosmos-1506 - Orbit

View from above orbital plane
View from above orbital plane
View from above satellite
View from above satellite

Ground track
Ground track

The orbit data is extracted from the following two-line orbital elements,

1 14450U 83108A   18343.95965628 +.00000021 +00000-0 +57792-5 0  9991
2 14450 082.9286 154.1323 0044008 117.0423 351.3813 13.76242607579894
Epoch (UTC): 09 December 2018 23:01:54
Eccentricity: 0.0044008
inclination: 82.9286°
perigee height: 945 km
apogee height: 1009 km
right ascension of ascending node: 154.1323°
argument of perigee: 117.0423°
revolutions per day: 13.76242607
mean anomaly at epoch: 351.3813°
orbit number at epoch: 57989

The dashed part of the orbit path shows where the satellite is in the earth's shadow,  

DLR